Location: Alpha Ridge Park
(39.3209°N, 76.9128°W)
Time: 09:49:19
(UTC-04:00)

Explorer 11/Cluster Stage 4 - Visible Passes

Search period start: 23 October 2019 00:00
Search period end: 02 November 2019 00:00
Orbit: 467 x 1259 km, 28.8° (Epoch: 22 October)

Date Brightness Start Highest point End Pass type
(mag) Time Alt. Az. Time Alt. Az. Time Alt. Az.
26 Oct 8.7 06:56:44 10° S 06:58:19 12° SSE 06:59:48 10° SE visible
27 Oct 8.6 06:45:10 10° SSW 06:47:40 14° S 06:49:58 10° SE visible
28 Oct 8.5 06:33:51 10° SSW 06:37:02 17° S 06:39:52 10° SE visible
29 Oct 9.1 04:39:02 10° SSE 04:39:02 10° SSE 04:39:28 10° SSE visible
29 Oct 8.3 06:22:39 10° SW 06:26:23 19° S 06:29:39 10° SE visible
30 Oct 9.1 04:29:13 12° SE 04:29:13 12° SE 04:30:17 10° SE visible
30 Oct 8.2 06:11:29 10° SW 06:15:43 22° S 06:19:22 10° SE visible
31 Oct 9.1 04:19:20 13° SE 04:19:20 13° SE 04:20:24 10° SE visible
31 Oct 8.1 06:01:29 14° SW 06:05:03 24° S 06:09:00 10° ESE visible
01 Nov 9.2 04:09:24 13° SE 04:09:24 13° SE 04:10:16 10° ESE visible
01 Nov 8.1 05:51:33 19° SW 05:54:21 26° S 05:58:37 10° ESE visible
